[[{"header":{"parameterUnit":"m.s-1","parameterCategory":1,"la1":30.2991,"la2":30.254,"lo1":-89.0895,"lo2":-89.0444,"dy":0.0017,"dx":0.0017,"nx":28,"ny":28,"refTime":"2025-03-09T03:00:00:Z","depth":0,"parameterNumber":2,"parameterNumberName":"U-component_of_WINDS"},"data":[0,0,0,0,0,0,0,0,0,0,0,0,0,0,0,0,0,0,0,0,0,0,0,0,0,0,0,0,0,0,0,0,0,0,0,0,0,0,0,0,0,0,0,0,0,0,0,0,0,0,0,0,0,0,0,0,0,0,1.739,1.739,0,1.741,1.741,1.7411,1.7384,1.7383,1.7382,1.7381,1.7405,1.7406,1.7408,0,0,0,0,0,0,0,0,0,0,0,0,0,1.7331,1.7332,1.739,1.739,1.739,1.741,1.741,1.7411,1.7384,1.7383,1.7382,1.7381,1.7404,1.7406,1.7408,0,0,0,0,0,0,0,0,0,0,0,0,0,1.7355,1.7333,1.739,1.7379,1.7379,1.741,1.741,1.7411,1.7384,1.7383,1.7382,1.738,1.7404,1.7406,1.7408,1.7451,0,0,1.7415,1.7416,0,0,0,0,0,0,0,0,1.7353,1.7357,1.7381,1.738,1.7379,1.7393,1.7398,1.7424,1.7385,1.7382,1.7381,1.7379,1.7402,1.7405,1.7412,1.7453,1.7454,1.7415,1.7417,1.7418,1.7418,0,0,0,0,0,0,0,1.7352,1.7356,1.7398,1.7381,1.738,1.7375,1.7377,1.7403,1.74,1.7382,1.7381,1.7383,1.7402,1.7409,1.7412,1.7454,1.7415,1.7417,1.7419,1.742,1.7534,1.7536,0,0,0,0,0,0,1.7351,1.7355,1.7397,1.7398,1.7362,1.7377,1.7379,1.739,1.74,1.74,1.7384,1.7382,1.7406,1.7409,1.7413,1.7466,1.7418,1.742,1.7421,1.7533,1.7535,1.7536,0,0,0,0,0,0,1.735,1.7355,1.7396,1.7376,1.7381,1.738,1.7392,1.7391,1.7399,1.7401,1.7401,1.7393,1.7405,1.7409,1.7442,1.7466,1.7421,1.7423,1.7531,1.7533,1.7535,1.7572,0,0,0,0,0,0,1.7348,1.7355,1.737,1.7377,1.7382,1.7425,1.7394,1.7393,1.7403,1.74,1.7409,1.7409,1.7404,1.7439,1.7445,1.7469,1.7425,1.7528,1.7532,1.7535,1.7568,1.7575,1.7581,0,0,0,0,0,1.7346,1.738,1.7371,1.7376,1.7401,1.7426,1.7429,1.7422,1.7405,1.7421,1.7423,1.7409,1.7463,1.7443,1.7449,1.7474,1.7527,1.7531,1.7534,1.7565,1.7574,1.7581,0,0,0,0,0,0,1.7376,1.738,1.7371,1.7407,1.7416,1.7421,1.7442,1.7431,1.7446,1.7442,1.7434,1.7436,1.7472,1.7476,1.7454,1.7518,1.7492,1.7497,1.7514,1.7521,1.7528,1.7526,1.7427,0,0,0,0,0,1.7387,1.7406,1.7409,1.744,1.7445,1.7443,1.7453,1.7447,1.7457,1.7461,1.7465,1.7476,1.7496,1.7508,1.7526,1.7568,1.7571,1.7589,1.7595,1.76,1.7605,1.763,1.7639,1.7549,1.7549,1.7549,0,0,1.741,1.7414,1.7427,1.7447,1.7453,1.7474,1.7446,1.7469,1.7486,1.7465,1.7496,1.75,1.7512,1.755,1.7567,1.7555,1.7631,1.7605,1.7609,1.7611,1.7635,1.7643,1.7651,1.7551,1.7551,1.755,0,0,1.7462,1.7467,1.7494,1.7502,1.7512,1.751,1.7517,1.7524,1.7526,1.7557,1.7543,1.7562,1.7595,1.7605,1.7614,1.7672,1.7661,1.7678,1.7711,1.7736,1.7743,1.7749,1.7772,1.778,1.7683,1.7683,1.7683,0,1.7489,1.752,1.751,1.7535,1.7545,1.7527,1.7556,1.7564,1.758,1.7588,1.7573,1.7616,1.7622,1.7664,1.7678,1.7686,1.7695,1.7678,1.7742,1.7749,1.7754,1.7776,1.7784,1.7685,1.7685,1.7685,1.7685,0,1.7554,1.7575,1.7596,1.7612,1.7625,1.7651,1.7648,1.7662,1.7655,1.7655,1.7689,1.7696,1.7716,1.7725,1.7719,1.7767,1.7759,1.7743,1.7718,1.7765,1.7786,1.7794,1.7688,1.7688,1.7687,1.7686,0,0,1.7625,1.7636,1.7645,1.7652,1.7663,1.768,1.7707,1.7726,1.7739,1.7751,1.7775,1.7804,1.779,1.7801,1.7796,1.7817,1.7865,1.7799,1.78,1.7813,1.7921,1.7934,1.7943,1.7857,1.7859,1.786,1.7921,0,1.7679,1.7725,1.7718,1.7763,1.7784,1.7767,1.7791,1.7801,1.7803,1.7822,1.7824,1.7845,1.7825,1.7831,1.7851,1.7855,1.7887,1.785,1.7881,1.7883,1.788,1.7954,1.7967,1.8024,1.7928,1.793,1.7931,0,1.7748,1.7763,1.7809,1.7819,1.7827,1.7848,1.7866,1.7884,1.7896,1.7896,1.7908,1.79,1.7929,1.7902,1.7943,1.7918,1.793,1.7934,1.7936,1.794,1.791,1.7961,1.8041,1.8051,1.7943,1.7942,1.7941,0,1.7799,1.783,1.7862,1.7869,1.788,1.7896,1.7901,1.7911,1.7924,1.794,1.7949,1.7968,1.7979,1.7995,1.7993,1.7973,1.8036,1.8008,1.8038,1.8038,1.8053,1.8052,1.8138,1.8058,1.8058,1.8058,1.8058,0,1.786,1.789,1.7885,1.7905,1.7939,1.7931,1.7965,1.7969,1.7978,1.8,1.7987,1.8008,1.8003,1.8025,1.8023,1.8059,1.8063,1.8065,1.8065,1.8068,1.8068,1.8077,1.8073,1.806,1.806,1.8059,1.8059,0,1.7923,1.792,1.7955,1.7962,1.7965,1.799,1.7997,1.8017,1.8018,1.8046,1.8052,1.8054,1.8078,1.8077,1.8105,1.8104,1.8149,1.8143,1.8145,1.8144,1.8175,1.8173,1.8271,1.8284,1.8194,1.8195,1.8196,0,1.7963,1.7986,1.7996,1.8009,1.8016,1.8037,1.805,1.8044,1.8059,1.8075,1.8093,1.8117,1.8135,1.8176,1.8181,1.8203,1.8199,1.8231,1.8202,1.8205,1.8202,1.8201,1.8204,1.8238,1.8239,1.824,1.824,0,1.8036,1.8034,1.8052,1.8071,1.8087,1.8101,1.8115,1.8127,1.8122,1.8139,1.8164,1.8179,1.8208,1.8232,1.8254,1.8261,1.8251,1.8249,1.8258,1.8262,1.8263,1.8265,1.8163,1.8247,1.8247,1.8246,1.8246,1.8245,1.809,1.811,1.8121,1.8142,1.8152,1.8165,1.8185,1.8188,1.8208,1.8231,1.8226,1.8255,1.8268,1.8296,1.8305,1.8329,1.8318,1.8329,1.8333,1.8336,1.8341,1.8257,1.8333,1.8332,1.8332,1.8332,1.8332,0,1.8164,1.817,1.819,1.8209,1.8227,1.8214,1.8229,1.8245,1.827,1.8283,1.8301,1.8331,1.8355,1.8362,1.8386,1.8404,1.84,1.841,1.841,1.8412,1.8348,1.834,1.8413,1.8413,1.8413,1.8413,1.8413,1.8413,1.8204,1.8238,1.8238,1.8277,1.8283,1.8311,1.8321,1.8334,1.8344,1.8378,1.8397,1.8401,1.8412,1.8437,1.8459,1.846,1.8471,1.8484,1.8484,1.8424,1.8416,1.8409,1.84,1.8485,1.8485,1.8546,1.8546,1.8547]},{"header":{"parameterUnit":"m.s-1","parameterCategory":1,"la1":30.2991,"la2":30.254,"lo1":-89.0895,"lo2":-89.0444,"dy":0.0017,"dx":0.0017,"nx":28,"ny":28,"refTime":"2025-03-09T03:00:00:Z","depth":0,"parameterNumber":3,"parameterNumberName":"V-component_of_WINDS"},"data":[0,0,0,0,0,0,0,0,0,0,0,0,0,0,0,0,0,0,0,0,0,0,0,0,0,0,0,0,0,0,0,0,0,0,0,0,0,0,0,0,0,0,0,0,0,0,0,0,0,0,0,0,0,0,0,0,0,0,-1.1881,-1.188,0,-1.1847,-1.1847,-1.1847,-1.1825,-1.1825,-1.1825,-1.1824,-1.1787,-1.1786,-1.1786,0,0,0,0,0,0,0,0,0,0,0,0,0,-1.1923,-1.1922,-1.1881,-1.188,-1.188,-1.1847,-1.1847,-1.1846,-1.1825,-1.1825,-1.1825,-1.1824,-1.1788,-1.1787,-1.1786,0,0,0,0,0,0,0,0,0,0,0,0,0,-1.1898,-1.1922,-1.1881,-1.1865,-1.1864,-1.1848,-1.1847,-1.1846,-1.1825,-1.1825,-1.1824,-1.1824,-1.1788,-1.1787,-1.1785,-1.1781,0,0,-1.1781,-1.1781,0,0,0,0,0,0,0,0,-1.19,-1.1897,-1.1868,-1.1866,-1.1864,-1.184,-1.1848,-1.1824,-1.1825,-1.1839,-1.1824,-1.1824,-1.1805,-1.1802,-1.1796,-1.178,-1.1778,-1.1781,-1.178,-1.178,-1.178,0,0,0,0,0,0,0,-1.1901,-1.1898,-1.1867,-1.1868,-1.1865,-1.1859,-1.1855,-1.1843,-1.1824,-1.1838,-1.1837,-1.1833,-1.1804,-1.1798,-1.1795,-1.1777,-1.1781,-1.178,-1.1779,-1.1779,-1.1755,-1.1755,0,0,0,0,0,0,-1.1906,-1.19,-1.1868,-1.1866,-1.1882,-1.1858,-1.1854,-1.1848,-1.1824,-1.182,-1.1833,-1.1832,-1.18,-1.1797,-1.1794,-1.1787,-1.178,-1.1779,-1.1778,-1.1755,-1.1755,-1.1755,0,0,0,0,0,0,-1.1907,-1.1903,-1.187,-1.1883,-1.1878,-1.1858,-1.1851,-1.1847,-1.1841,-1.182,-1.1816,-1.1831,-1.18,-1.1796,-1.1785,-1.1785,-1.1778,-1.1777,-1.1754,-1.1755,-1.1755,-1.1773,0,0,0,0,0,0,-1.1908,-1.1904,-1.1903,-1.1883,-1.1877,-1.1862,-1.1851,-1.1847,-1.1839,-1.1838,-1.1817,-1.1813,-1.1799,-1.1787,-1.1783,-1.1783,-1.1776,-1.1754,-1.1754,-1.1755,-1.1773,-1.1774,-1.1776,0,0,0,0,0,-1.191,-1.1909,-1.1903,-1.1899,-1.1876,-1.1862,-1.1859,-1.1844,-1.184,-1.1838,-1.1824,-1.1813,-1.1786,-1.1786,-1.1782,-1.1781,-1.1754,-1.1754,-1.1755,-1.1772,-1.1774,-1.1776,0,0,0,0,0,0,-1.1929,-1.1906,-1.1899,-1.1892,-1.1879,-1.1859,-1.1856,-1.1847,-1.1835,-1.1833,-1.1814,-1.181,-1.18,-1.179,-1.179,-1.1776,-1.1769,-1.1768,-1.1783,-1.1785,-1.1786,-1.1789,-1.1775,0,0,0,0,0,-1.1933,-1.1925,-1.1905,-1.19,-1.1894,-1.1876,-1.187,-1.186,-1.1845,-1.184,-1.1825,-1.1811,-1.1799,-1.1791,-1.1779,-1.1771,-1.1766,-1.1769,-1.177,-1.1772,-1.1771,-1.1765,-1.1766,-1.1756,-1.1756,-1.1756,0,0,-1.1939,-1.1926,-1.1922,-1.1904,-1.1893,-1.1884,-1.1872,-1.1863,-1.1856,-1.1838,-1.1827,-1.1816,-1.1798,-1.1789,-1.1784,-1.1779,-1.1773,-1.1772,-1.1773,-1.1772,-1.1766,-1.1767,-1.1768,-1.1756,-1.1756,-1.1756,0,0,-1.1947,-1.1937,-1.1932,-1.1921,-1.1905,-1.1893,-1.1892,-1.1872,-1.1865,-1.1853,-1.1839,-1.183,-1.181,-1.1798,-1.1789,-1.1792,-1.1782,-1.1789,-1.1796,-1.1791,-1.1792,-1.1792,-1.1793,-1.1793,-1.1789,-1.1789,-1.1789,0,-1.1958,-1.1945,-1.193,-1.1922,-1.1914,-1.1898,-1.1892,-1.1882,-1.1862,-1.1857,-1.1853,-1.1827,-1.1814,-1.1801,-1.1802,-1.1796,-1.1793,-1.1791,-1.1793,-1.1794,-1.1794,-1.1794,-1.1794,-1.179,-1.179,-1.1789,-1.1789,0,-1.1958,-1.1949,-1.1947,-1.1929,-1.1921,-1.1914,-1.1897,-1.189,-1.1881,-1.1869,-1.1857,-1.1841,-1.1825,-1.1821,-1.1811,-1.1806,-1.1804,-1.1797,-1.1789,-1.1796,-1.1796,-1.1796,-1.1791,-1.1791,-1.179,-1.179,0,0,-1.1977,-1.1952,-1.1951,-1.1943,-1.1923,-1.1916,-1.1907,-1.1893,-1.1887,-1.1874,-1.1866,-1.1849,-1.1842,-1.1832,-1.182,-1.1816,-1.1818,-1.1809,-1.1808,-1.1811,-1.1811,-1.1817,-1.1817,-1.1811,-1.1811,-1.1811,-1.1812,0,-1.1982,-1.1968,-1.1954,-1.1945,-1.1936,-1.192,-1.1913,-1.19,-1.1888,-1.1878,-1.1865,-1.1853,-1.1845,-1.1839,-1.1834,-1.1819,-1.1818,-1.1819,-1.1803,-1.1802,-1.1807,-1.1817,-1.1823,-1.1825,-1.1812,-1.1812,-1.1812,0,-1.1986,-1.1975,-1.1964,-1.1945,-1.1941,-1.1935,-1.192,-1.1911,-1.1895,-1.1887,-1.1876,-1.1864,-1.1853,-1.1847,-1.1832,-1.1833,-1.1825,-1.1817,-1.1816,-1.1814,-1.1808,-1.1815,-1.1825,-1.1826,-1.1812,-1.1812,-1.1812,0,-1.2001,-1.1982,-1.1974,-1.1967,-1.1945,-1.1941,-1.1931,-1.1915,-1.1907,-1.1894,-1.1888,-1.1873,-1.1865,-1.1853,-1.1837,-1.1834,-1.1823,-1.1815,-1.1815,-1.1815,-1.1813,-1.1813,-1.1823,-1.1809,-1.1809,-1.1809,-1.1809,0,-1.2008,-1.2002,-1.198,-1.1975,-1.1967,-1.1951,-1.1943,-1.1932,-1.1918,-1.191,-1.1895,-1.1887,-1.1866,-1.1855,-1.1842,-1.1831,-1.1827,-1.1819,-1.1816,-1.1821,-1.1822,-1.1815,-1.1815,-1.1809,-1.1809,-1.1809,-1.1809,0,-1.2023,-1.2008,-1.1997,-1.1977,-1.1972,-1.1968,-1.195,-1.1943,-1.1931,-1.192,-1.1917,-1.1897,-1.1883,-1.1866,-1.1847,-1.1838,-1.1828,-1.1823,-1.1834,-1.1831,-1.1832,-1.1832,-1.1837,-1.1836,-1.1824,-1.1824,-1.1824,0,-1.2028,-1.2023,-1.2003,-1.1996,-1.1988,-1.1977,-1.1969,-1.1952,-1.1944,-1.1926,-1.1921,-1.1907,-1.1894,-1.1873,-1.1856,-1.1841,-1.1835,-1.1838,-1.1832,-1.1837,-1.1834,-1.1835,-1.1834,-1.1839,-1.1839,-1.1839,-1.1839,0,-1.2038,-1.2031,-1.2021,-1.2007,-1.1998,-1.1987,-1.1974,-1.1969,-1.195,-1.1941,-1.1928,-1.1918,-1.1898,-1.1884,-1.1866,-1.1855,-1.1843,-1.1841,-1.184,-1.1845,-1.1851,-1.1847,-1.1837,-1.1841,-1.1841,-1.1841,-1.1841,-1.1841,-1.2048,-1.2043,-1.2028,-1.2017,-1.2006,-1.1994,-1.1987,-1.1974,-1.1963,-1.1947,-1.1937,-1.1923,-1.1907,-1.1882,-1.1871,-1.186,-1.1855,-1.1854,-1.1854,-1.1854,-1.1855,-1.1853,-1.1856,-1.1856,-1.1856,-1.1856,-1.1856,0,-1.2058,-1.2047,-1.2037,-1.2021,-1.2011,-1.2002,-1.1988,-1.198,-1.1969,-1.1955,-1.1943,-1.1927,-1.1912,-1.1894,-1.1878,-1.1872,-1.1867,-1.1869,-1.1869,-1.1866,-1.186,-1.1862,-1.1874,-1.1874,-1.1874,-1.1874,-1.1874,-1.1874,-1.2062,-1.2053,-1.2044,-1.2028,-1.2017,-1.2005,-1.1998,-1.1987,-1.1975,-1.1958,-1.1947,-1.1935,-1.1919,-1.1902,-1.1888,-1.1883,-1.1877,-1.1881,-1.1874,-1.1868,-1.1867,-1.1865,-1.1867,-1.188,-1.188,-1.1882,-1.1882,-1.1882]}]]